Athens, GA

12:35 PM EDT on August 25, 2016 (GMT -0400)
Athens / Epps

Weather History for KAHN - September, 2012

Change the Weather History Date:

Monday, September 24, 2012

  Actual Average Record
Temperature  
Mean Temperature 63 °F 70 °F  
Max Temperature 76 °F 81 °F 103 °F (1931)
Min Temperature 50 °F 60 °F 30 °F (1928)
Degree Days  
Heating Degree Days 2 1  
Month to date heating degree days 2 2  
Since 1 July heating degree days 2 2  
Cooling Degree Days 0 6  
Month to date cooling degree days 213 228  
Year to date cooling degree days 1900 1783  
Growing Degree Days 12 (Base 50)    
Moisture  
Dew Point 43 °F    
Average Humidity 54    
Maximum Humidity 72    
Minimum Humidity 35    
Precipitation  
Precipitation 0.00 in 0.14 in 1.45 in (1902)
Month to date precipitation 4.33 3.02  
Year to date precipitation 28.06 34.31  
Sea Level Pressure  
Sea Level Pressure 30.17 in    
Wind  
Wind Speed 6 mph (NNE)    
Max Wind Speed 17 mph    
Max Gust Speed 23 mph    
Visibility 10 miles    
Events      
T = Trace of Precipitation, MM = Missing Value Source: NWS Daily Summary

Daily Weather History Graph

Daily Weather History Graph

Search for Another Location

Airport or City:

Trip Planner

Search our weather history database for the weather conditions in past years. The results will help you decide how hot, cold, wet, or windy it might be!

Date:

Astronomy

Sep. 24, 2012 Rise Set
Actual Time 7:23 AM EDT 7:26 PM EDT
Civil Twilight 6:58 AM EDT 7:51 PM EDT
Nautical Twilight 6:29 AM EDT 8:20 PM EDT
Astronomical Twilight 5:59 AM EDT 8:49 PM EDT
Moon 3:59 PM EDT (9/24) 1:52 AM EDT (9/24)
Length of Visible Light 12h 53m
Length of Day
12h 03m
Waxing Gibbous, 70% of the Moon is Illuminated
Sep 24
Waxing Gibbous
Sep 29
Full
Oct 8
Last Quarter
Oct 15
New
Oct 21
First Quarter

Hourly Weather History & Observations

Time (EDT) Temp. Dew Point Humidity Pressure Visibility Wind Dir Wind Speed Gust Speed Precip Events Conditions
12:51 AM 55.4 °F 42.8 °F 63% 30.15 in 10.0 mi North 4.6 mph - N/A   Clear
1:51 AM 55.9 °F 39.9 °F 55% 30.14 in 10.0 mi NW 6.9 mph - N/A   Clear
2:51 AM 53.1 °F 39.9 °F 61% 30.14 in 10.0 mi NW 4.6 mph - N/A   Clear
3:51 AM 53.1 °F 39.0 °F 59% 30.14 in 10.0 mi North 4.6 mph - N/A   Clear
4:51 AM 52.0 °F 37.9 °F 59% 30.14 in 10.0 mi North 4.6 mph - N/A   Clear
5:51 AM 51.1 °F 37.9 °F 61% 30.14 in 10.0 mi North 3.5 mph - N/A   Clear
6:51 AM 50.0 °F 37.9 °F 63% 30.17 in 10.0 mi North 3.5 mph - N/A   Clear
7:51 AM 51.1 °F 39.9 °F 66% 30.18 in 10.0 mi NE 5.8 mph - N/A   Clear
8:51 AM 55.9 °F 42.1 °F 60% 30.20 in 10.0 mi ENE 11.5 mph - N/A   Clear
9:51 AM 60.1 °F 42.1 °F 51% 30.21 in 10.0 mi East 15.0 mph 21.9 mph N/A   Clear
10:51 AM 64.0 °F 43.0 °F 46% 30.22 in 10.0 mi East 13.8 mph - N/A   Clear
11:51 AM 68.0 °F 43.0 °F 40% 30.21 in 10.0 mi East 11.5 mph 19.6 mph N/A   Clear
12:51 PM 71.1 °F 44.1 °F 38% 30.20 in 10.0 mi ENE 10.4 mph 17.3 mph N/A   Clear
1:51 PM 72.0 °F 44.1 °F 37% 30.18 in 10.0 mi NE 6.9 mph - N/A   Clear
2:51 PM 73.9 °F 45.0 °F 35% 30.17 in 10.0 mi Calm Calm - N/A   Clear
3:51 PM 73.9 °F 45.0 °F 35% 30.15 in 10.0 mi Calm Calm - N/A   Clear
4:51 PM 75.9 °F 46.0 °F 35% 30.14 in 7.0 mi Variable 3.5 mph - N/A   Clear
5:51 PM 73.9 °F 46.0 °F 37% 30.14 in 9.0 mi NE 4.6 mph - N/A   Clear
6:51 PM 71.1 °F 46.9 °F 42% 30.15 in 6.0 mi NNE 4.6 mph - N/A   Haze
7:51 PM 64.9 °F 48.9 °F 56% 30.16 in 8.0 mi NNE 4.6 mph - N/A   Clear
8:51 PM 63.0 °F 48.0 °F 58% 30.16 in 9.0 mi NNE 5.8 mph - N/A   Clear
9:51 PM 59.0 °F 48.0 °F 67% 30.18 in 10.0 mi ENE 4.6 mph - N/A   Clear
10:51 PM 57.9 °F 48.0 °F 70% 30.19 in 10.0 mi ENE 3.5 mph - N/A   Clear
11:51 PM 57.0 °F 48.0 °F 72% 30.18 in 10.0 mi ENE 4.6 mph - N/A   Clear